BACN10 KLSV-KHIF

Flight info

Callsign BACN10
Flight time 0h 59m
Altitude 35000
Route MMM V21 FFU
Aircraft GLEX/M-VGDW/C

Departure

Time 2026-04-14 01:38
Airport Nellis Air Force Base (KLSV)

Arrival

Time 2026-04-14 02:37
Airport Hill Air Force Base (KHIF)
Time Latitude Longitude Altitude Speed Heading
2026-04-14 01:30 36.23587 -115.03987 1865 ft 0 kts 310°
2026-04-14 01:34 36.23588 -115.03988 1865 ft 1 kts 310°
2026-04-14 01:35 36.23570 -115.04005 1864 ft 8 kts 151°
2026-04-14 01:35 36.23502 -115.04021 1865 ft 15 kts 221°
2026-04-14 01:35 36.23396 -115.04133 1860 ft 25 kts 220°
2026-04-14 01:35 36.23260 -115.04282 1858 ft 26 kts 220°
2026-04-14 01:36 36.23110 -115.04445 1855 ft 29 kts 221°
2026-04-14 01:36 36.22966 -115.04600 1855 ft 24 kts 222°
2026-04-14 01:36 36.22848 -115.04728 1855 ft 22 kts 221°
2026-04-14 01:36 36.22734 -115.04751 1854 ft 19 kts 129°
2026-04-14 01:37 36.22721 -115.04624 1856 ft 15 kts 53°
2026-04-14 01:37 36.22756 -115.04583 1856 ft 2 kts 40°
2026-04-14 01:37 36.22900 -115.04427 1855 ft 63 kts 41°
2026-04-14 01:37 36.23421 -115.03864 1867 ft 133 kts 41°
2026-04-14 01:38 36.25255 -115.01749 2624 ft 221 kts 43°
2026-04-14 01:38 36.26396 -115.00418 3799 ft 224 kts 42°
2026-04-14 01:38 36.27487 -114.99107 4974 ft 218 kts 43°
2026-04-14 01:39 36.28326 -114.97564 6045 ft 215 kts 65°
2026-04-14 01:39 36.28953 -114.95914 7079 ft 209 kts 57°
2026-04-14 01:39 36.29866 -114.94557 8044 ft 201 kts 43°
2026-04-14 01:39 36.30850 -114.93314 8909 ft 203 kts 46°
2026-04-14 01:40 36.31763 -114.91983 9703 ft 206 kts 48°
2026-04-14 01:40 36.32700 -114.90632 10454 ft 207 kts 46°
2026-04-14 01:40 36.33675 -114.89290 11184 ft 210 kts 47°
2026-04-14 01:40 36.34646 -114.87922 11916 ft 212 kts 48°
2026-04-14 01:41 36.35611 -114.86547 12658 ft 214 kts 48°
2026-04-14 01:41 36.36603 -114.85148 13392 ft 217 kts 48°
2026-04-14 01:41 36.37611 -114.83734 14084 ft 219 kts 48°
2026-04-14 01:41 36.38622 -114.82309 14748 ft 220 kts 49°
2026-04-14 01:42 36.39639 -114.80864 15390 ft 222 kts 49°
2026-04-14 01:42 36.40650 -114.79431 16043 ft 224 kts 49°
2026-04-14 01:42 36.41685 -114.77974 16705 ft 225 kts 49°
2026-04-14 01:42 36.42727 -114.76502 17341 ft 228 kts 50°
2026-04-14 01:43 36.43773 -114.75015 18003 ft 230 kts 50°
2026-04-14 01:43 36.44830 -114.73518 18592 ft 231 kts 49°
2026-04-14 01:43 36.45896 -114.72010 19165 ft 232 kts 49°
2026-04-14 01:43 36.46965 -114.70498 19743 ft 233 kts 49°
2026-04-14 01:44 36.48038 -114.68975 20318 ft 234 kts 49°
2026-04-14 01:44 36.49116 -114.67445 20901 ft 235 kts 49°
2026-04-14 01:44 36.50181 -114.65933 21473 ft 236 kts 49°
2026-04-14 01:44 36.51269 -114.64389 22054 ft 237 kts 49°
2026-04-14 01:45 36.52359 -114.62839 22626 ft 238 kts 49°
2026-04-14 01:45 36.53458 -114.61276 23199 ft 240 kts 49°
2026-04-14 01:45 36.54563 -114.59707 23700 ft 242 kts 49°
2026-04-14 01:45 36.55669 -114.58134 24061 ft 248 kts 49°
2026-04-14 01:46 36.56817 -114.56498 24453 ft 252 kts 49°
2026-04-14 01:46 36.57986 -114.54834 24826 ft 258 kts 49°
2026-04-14 01:46 36.59181 -114.53133 25211 ft 262 kts 50°
2026-04-14 01:46 36.60376 -114.51426 25585 ft 267 kts 50°
2026-04-14 01:47 36.61611 -114.49667 25962 ft 271 kts 50°
2026-04-14 01:47 36.62861 -114.47885 26386 ft 274 kts 50°
2026-04-14 01:47 36.64104 -114.46107 26799 ft 277 kts 50°
2026-04-14 01:47 36.65379 -114.44289 27212 ft 280 kts 50°
2026-04-14 01:48 36.66667 -114.42448 27614 ft 283 kts 50°
2026-04-14 01:48 36.67963 -114.40591 28025 ft 285 kts 50°
2026-04-14 01:48 36.69276 -114.38712 28388 ft 289 kts 50°
2026-04-14 01:48 36.70593 -114.36831 28762 ft 293 kts 50°
2026-04-14 01:49 36.71941 -114.34896 29135 ft 296 kts 50°
2026-04-14 01:49 36.73302 -114.32944 29513 ft 300 kts 50°
2026-04-14 01:49 36.74683 -114.30964 29882 ft 303 kts 51°
2026-04-14 01:49 36.76064 -114.28989 30189 ft 306 kts 50°
2026-04-14 01:50 36.77656 -114.27192 30476 ft 310 kts 34°
2026-04-14 01:50 36.79499 -114.25774 30794 ft 312 kts 30°
2026-04-14 01:50 36.81357 -114.24338 31091 ft 315 kts 32°
2026-04-14 01:50 36.83210 -114.22854 31392 ft 317 kts 32°
2026-04-14 01:51 36.85072 -114.21416 31685 ft 320 kts 31°
2026-04-14 01:51 36.86979 -114.19960 31980 ft 322 kts 31°
2026-04-14 01:51 36.88894 -114.18465 32272 ft 324 kts 32°
2026-04-14 01:51 36.90816 -114.16959 32574 ft 327 kts 31°
2026-04-14 01:52 36.92762 -114.15450 32861 ft 329 kts 31°
2026-04-14 01:52 36.94696 -114.13948 33146 ft 332 kts 31°
2026-04-14 01:52 36.96667 -114.12410 33435 ft 334 kts 31°
2026-04-14 01:52 36.98645 -114.10866 33707 ft 337 kts 31°
2026-04-14 01:53 37.00644 -114.09308 33968 ft 339 kts 31°
2026-04-14 01:53 37.01979 -114.08267 34127 ft 340 kts 31°
2026-04-14 01:53 37.04650 -114.06180 34457 ft 342 kts 31°
2026-04-14 01:53 37.05998 -114.05126 34621 ft 343 kts 31°
2026-04-14 01:54 37.08033 -114.03536 34865 ft 344 kts 31°
2026-04-14 01:54 37.10091 -114.01927 34914 ft 355 kts 31°
2026-04-14 01:54 37.12223 -114.00257 34927 ft 367 kts 31°
2026-04-14 01:54 37.14432 -113.98528 34933 ft 380 kts 31°
2026-04-14 01:55 37.16718 -113.96736 34933 ft 394 kts 31°
2026-04-14 01:55 37.19063 -113.94894 34936 ft 409 kts 31°
2026-04-14 01:55 37.21529 -113.92959 34941 ft 424 kts 31°
2026-04-14 01:55 37.24084 -113.90952 34943 ft 440 kts 32°
2026-04-14 01:56 37.26723 -113.88875 34943 ft 456 kts 32°
2026-04-14 01:56 37.29462 -113.86721 34945 ft 472 kts 32°
2026-04-14 01:56 37.32259 -113.84518 34947 ft 488 kts 32°
2026-04-14 01:56 37.35196 -113.82200 34945 ft 505 kts 32°
2026-04-14 01:57 37.38233 -113.79803 34950 ft 521 kts 32°
2026-04-14 01:57 37.41314 -113.77370 34953 ft 536 kts 32°
2026-04-14 01:57 37.44515 -113.74837 34955 ft 550 kts 32°
2026-04-14 01:57 37.47810 -113.72229 34955 ft 563 kts 32°
2026-04-14 01:58 37.54458 -113.66957 34949 ft 564 kts 32°
2026-04-14 01:58 37.61064 -113.61706 34953 ft 564 kts 32°
2026-04-14 01:59 37.67718 -113.56409 34949 ft 564 kts 32°
2026-04-14 01:59 37.74368 -113.51099 34954 ft 564 kts 32°
2026-04-14 02:00 37.80984 -113.45809 34957 ft 564 kts 32°
2026-04-14 02:00 37.87635 -113.40476 34958 ft 564 kts 32°
2026-04-14 02:01 37.94249 -113.35164 34955 ft 564 kts 32°
2026-04-14 02:01 38.00893 -113.29814 34953 ft 564 kts 33°
2026-04-14 02:02 38.07499 -113.24485 34958 ft 565 kts 33°
2026-04-14 02:02 38.14141 -113.19114 34960 ft 564 kts 33°
2026-04-14 02:03 38.20720 -113.13782 34975 ft 564 kts 33°
2026-04-14 02:03 38.27355 -113.08394 34985 ft 565 kts 33°
2026-04-14 02:04 38.33984 -113.03006 34991 ft 565 kts 32°
2026-04-14 02:04 38.41028 -112.98676 34991 ft 565 kts 21°
2026-04-14 02:05 38.48306 -112.94789 34993 ft 566 kts 22°
2026-04-14 02:05 38.55541 -112.90936 34996 ft 566 kts 21°
2026-04-14 02:06 38.62815 -112.87037 34993 ft 566 kts 22°
2026-04-14 02:06 38.70092 -112.83140 34987 ft 566 kts 22°
2026-04-14 02:07 38.77323 -112.79251 34971 ft 566 kts 22°
2026-04-14 02:07 38.84518 -112.75378 34975 ft 552 kts 22°
2026-04-14 02:08 38.91636 -112.71538 34969 ft 556 kts 22°
2026-04-14 02:08 38.98752 -112.67689 34980 ft 556 kts 22°
2026-04-14 02:09 39.05905 -112.63811 34987 ft 557 kts 22°
2026-04-14 02:09 39.13017 -112.59945 34977 ft 557 kts 22°
2026-04-14 02:10 39.20171 -112.56049 34991 ft 557 kts 22°
2026-04-14 02:10 39.27322 -112.52145 35019 ft 557 kts 21°
2026-04-14 02:11 39.30872 -112.50204 35027 ft 546 kts 21°
2026-04-14 02:11 39.34258 -112.48299 35016 ft 526 kts 22°
2026-04-14 02:11 39.37539 -112.46365 35010 ft 510 kts 23°
2026-04-14 02:11 39.40757 -112.44488 34724 ft 511 kts 22°
2026-04-14 02:12 39.44049 -112.42637 34123 ft 518 kts 22°
2026-04-14 02:12 39.47354 -112.40763 33439 ft 517 kts 23°
2026-04-14 02:12 39.50632 -112.38851 32798 ft 515 kts 24°
2026-04-14 02:12 39.53897 -112.36952 32164 ft 512 kts 24°
2026-04-14 02:13 39.57112 -112.35116 31536 ft 510 kts 24°
2026-04-14 02:13 39.60353 -112.33259 30906 ft 508 kts 24°
2026-04-14 02:13 39.63586 -112.31380 30281 ft 507 kts 25°
2026-04-14 02:13 39.66812 -112.29505 29616 ft 506 kts 25°
2026-04-14 02:14 39.69992 -112.27671 28986 ft 505 kts 25°
2026-04-14 02:14 39.73210 -112.25813 28384 ft 505 kts 25°
2026-04-14 02:14 39.76433 -112.23937 27763 ft 506 kts 25°
2026-04-14 02:14 39.79648 -112.22065 27147 ft 505 kts 25°
2026-04-14 02:15 39.82833 -112.20218 26542 ft 505 kts 25°
2026-04-14 02:15 39.86053 -112.18347 25925 ft 505 kts 25°
2026-04-14 02:15 39.89272 -112.16467 25316 ft 506 kts 25°
2026-04-14 02:15 39.92496 -112.14586 24702 ft 507 kts 25°
2026-04-14 02:16 39.95678 -112.12731 24102 ft 507 kts 24°
2026-04-14 02:16 39.98895 -112.10850 23468 ft 507 kts 24°
2026-04-14 02:16 40.02116 -112.08964 22823 ft 506 kts 24°
2026-04-14 02:16 40.05349 -112.07074 22208 ft 507 kts 24°
2026-04-14 02:17 40.08572 -112.05184 21603 ft 508 kts 24°
2026-04-14 02:17 40.11802 -112.03286 20979 ft 509 kts 24°
2026-04-14 02:17 40.15039 -112.01388 20361 ft 509 kts 23°
2026-04-14 02:17 40.18237 -111.99509 19759 ft 507 kts 23°
2026-04-14 02:18 40.21378 -111.97650 19152 ft 481 kts 23°
2026-04-14 02:18 40.24369 -111.95925 18573 ft 456 kts 20°
2026-04-14 02:18 40.27333 -111.94963 17995 ft 432 kts
2026-04-14 02:18 40.30218 -111.95000 18001 ft 399 kts 354°
2026-04-14 02:19 40.32942 -111.95314 17998 ft 391 kts 352°
2026-04-14 02:19 40.35669 -111.95691 17998 ft 395 kts 351°
2026-04-14 02:19 40.38395 -111.96091 18005 ft 388 kts 351°
2026-04-14 02:19 40.41004 -111.96483 17999 ft 368 kts 351°
2026-04-14 02:20 40.43481 -111.96854 17989 ft 349 kts 351°
2026-04-14 02:20 40.45824 -111.97200 17988 ft 337 kts 351°
2026-04-14 02:20 40.48140 -111.97538 17983 ft 330 kts 351°
2026-04-14 02:20 40.50436 -111.97872 17982 ft 332 kts 351°
2026-04-14 02:21 40.52737 -111.98205 17883 ft 333 kts 351°
2026-04-14 02:21 40.54924 -111.98526 17451 ft 341 kts 351°
2026-04-14 02:21 40.57264 -111.98876 16973 ft 343 kts 351°
2026-04-14 02:21 40.59636 -111.99239 16460 ft 341 kts 351°
2026-04-14 02:22 40.61997 -111.99610 15943 ft 339 kts 351°
2026-04-14 02:22 40.64332 -111.99984 15444 ft 336 kts 351°
2026-04-14 02:22 40.66651 -112.00360 14949 ft 334 kts 351°
2026-04-14 02:22 40.68903 -112.00729 14464 ft 325 kts 351°
2026-04-14 02:23 40.71119 -112.01094 13973 ft 316 kts 351°
2026-04-14 02:23 40.73282 -112.01450 13449 ft 308 kts 351°
2026-04-14 02:23 40.75355 -112.01791 12967 ft 299 kts 351°
2026-04-14 02:23 40.77402 -112.02129 12425 ft 293 kts 351°
2026-04-14 02:24 40.79407 -112.02462 11905 ft 288 kts 351°
2026-04-14 02:24 40.81381 -112.02792 11403 ft 283 kts 351°
2026-04-14 02:24 40.83326 -112.03124 10906 ft 280 kts 351°
2026-04-14 02:24 40.85249 -112.03461 10409 ft 277 kts 351°
2026-04-14 02:25 40.87148 -112.03794 9931 ft 273 kts 351°
2026-04-14 02:25 40.89025 -112.04124 9409 ft 270 kts 351°
2026-04-14 02:25 40.90876 -112.04463 8873 ft 266 kts 351°
2026-04-14 02:25 40.92672 -112.04800 8358 ft 262 kts 351°
2026-04-14 02:26 40.94458 -112.05140 7983 ft 252 kts 351°
2026-04-14 02:26 40.96110 -112.05457 7984 ft 229 kts 351°
2026-04-14 02:26 40.97623 -112.05748 7978 ft 212 kts 351°
2026-04-14 02:26 40.99076 -112.06029 7995 ft 211 kts 351°
2026-04-14 02:27 41.00558 -112.06318 7847 ft 218 kts 351°
2026-04-14 02:27 41.02042 -112.06608 7708 ft 218 kts 351°
2026-04-14 02:27 41.03541 -112.06900 7564 ft 217 kts 351°
2026-04-14 02:27 41.05029 -112.07204 7415 ft 216 kts 350°
2026-04-14 02:28 41.06524 -112.07505 7259 ft 215 kts 351°
2026-04-14 02:28 41.07977 -112.07783 7133 ft 213 kts 351°
2026-04-14 02:28 41.09430 -112.08082 7018 ft 207 kts 351°
2026-04-14 02:28 41.10816 -112.08500 7009 ft 204 kts 342°
2026-04-14 02:29 41.12155 -112.09124 7007 ft 203 kts 340°
2026-04-14 02:29 41.13480 -112.09741 7001 ft 201 kts 341°
2026-04-14 02:29 41.14769 -112.10344 7001 ft 193 kts 341°
2026-04-14 02:29 41.16062 -112.10954 6825 ft 202 kts 341°
2026-04-14 02:30 41.17386 -112.11566 6615 ft 202 kts 341°
2026-04-14 02:30 41.18709 -112.12193 6380 ft 203 kts 341°
2026-04-14 02:30 41.20003 -112.12829 6301 ft 192 kts 341°
2026-04-14 02:30 41.21248 -112.13427 6295 ft 188 kts 341°
2026-04-14 02:31 41.22482 -112.14015 6301 ft 188 kts 341°
2026-04-14 02:31 41.23712 -112.14611 6291 ft 188 kts 341°
2026-04-14 02:31 41.24958 -112.15135 6257 ft 186 kts 353°
2026-04-14 02:31 41.26181 -112.14769 6269 ft 182 kts 35°
2026-04-14 02:32 41.27000 -112.13557 6304 ft 172 kts 52°
2026-04-14 02:32 41.27721 -112.12298 6312 ft 170 kts 51°
2026-04-14 02:32 41.28431 -112.11053 6289 ft 168 kts 57°
2026-04-14 02:32 41.28655 -112.09579 6199 ft 166 kts 100°
2026-04-14 02:33 41.28088 -112.08294 6283 ft 161 kts 133°
2026-04-14 02:33 41.27163 -112.07380 6315 ft 168 kts 149°
2026-04-14 02:33 41.26146 -112.06640 6348 ft 166 kts 149°
2026-04-14 02:34 41.24093 -112.05226 6339 ft 161 kts 152°
2026-04-14 02:34 41.23141 -112.04576 6274 ft 148 kts 151°
2026-04-14 02:34 41.22265 -112.03975 6273 ft 139 kts 153°
2026-04-14 02:34 41.21397 -112.03397 6290 ft 142 kts 151°
2026-04-14 02:35 41.20522 -112.02789 6238 ft 145 kts 152°
2026-04-14 02:35 41.19613 -112.02190 6056 ft 148 kts 152°
2026-04-14 02:35 41.18703 -112.01562 5848 ft 143 kts 152°
2026-04-14 02:35 41.17832 -112.00979 5650 ft 137 kts 153°
2026-04-14 02:36 41.17003 -112.00423 5457 ft 129 kts 153°
2026-04-14 02:36 41.16224 -111.99883 5295 ft 123 kts 153°
2026-04-14 02:36 41.15473 -111.99389 5124 ft 120 kts 153°
2026-04-14 02:36 41.14750 -111.98884 4965 ft 116 kts 150°
2026-04-14 02:37 41.14036 -111.98412 4816 ft 112 kts 153°
2026-04-14 02:37 41.13443 -111.98010 4791 ft 76 kts 154°
2026-04-14 02:37 41.13053 -111.97750 4794 ft 58 kts 153°
2026-04-14 02:37 41.12719 -111.97523 4791 ft 46 kts 153°
2026-04-14 02:38 41.12581 -111.97441 4791 ft 8 kts 178°
2026-04-14 02:38 41.12533 -111.97471 4791 ft 9 kts 225°
2026-04-14 02:38 41.12505 -111.97515 4790 ft 10 kts 229°
2026-04-14 02:38 41.12439 -111.97615 4790 ft 11 kts 222°
2026-04-14 02:39 41.12358 -111.97602 4790 ft 12 kts 150°
2026-04-14 02:39 41.12306 -111.97566 4790 ft 12 kts 152°
2026-04-14 02:39 41.12222 -111.97510 4790 ft 15 kts 153°
2026-04-14 02:39 41.12119 -111.97440 4790 ft 18 kts 153°
2026-04-14 02:40 41.11999 -111.97357 4790 ft 21 kts 153°
2026-04-14 02:40 41.11859 -111.97265 4790 ft 23 kts 155°
2026-04-14 02:40 41.11721 -111.97170 4789 ft 22 kts 153°
2026-04-14 02:40 41.11594 -111.97085 4789 ft 20 kts 152°
2026-04-14 02:41 41.11469 -111.97000 4789 ft 21 kts 152°
2026-04-14 02:41 41.11349 -111.96936 4789 ft 17 kts 185°
2026-04-14 02:41 41.11238 -111.96918 4789 ft 16 kts 146°
2026-04-14 02:41 41.11168 -111.96858 4789 ft 5 kts 143°
2026-04-14 02:42 41.11167 -111.96856 4789 ft 0 kts 143°